Location: Riverside Cemetery
(38.3047°N, 99.7773°W)
Time: 07:37:42
(UTC+00:00)

Meteor 1-10 Rocket - Pass Details

Date: 19 September 2020
Orbit: 836 x 910 km, 81.3° (Epoch: 22 October)

Event Time Altitude Azimuth Distance (km) Brightness Sun altitude
Exits shadow 11:07:56 10° 207° (SSW) 2,546 6.3 -15.7°
Reaches altitude 10° 11:08:02 10° 207° (SSW) 2,507 6.3 -15.7°
Maximum altitude 11:13:34 51° 283° (WNW) 1,102 4.4 -14.6°
Drops below altitude 10° 11:19:15 10° 358° (N) 2,571 6.9 -13.6°
Sets 11:21:50 0° 4° (N) 3,524 7.6 -13.1°
